DECAYED

STARLINK-4682, 53597 (Decayed)

Orbit data source: Space-Track

STARLINK-4682, 53597 was a payload satellite owned by SpaceX/Seattle (US) in LEO that was launched on Sun, 28 Aug 2022 UTC via an FALCON 9 launch vehicle from the Air Force Eastern Test Range (AFETR). Payloads include a variety of satellites, spacecraft, and rockets equipped with specific instruments for various scientific and technological missions. These include communications satellites like Starlink; space stations such as the ISS; scientific satellites like the Hubble; Earth observation satellites from companies like Planet Labs, Umbra, and HawkEye 360; GPS; miniature CubeSats for education and research; and military/defense satellites.

Not visible in the next 10 days
STARLINK-4682 details
Identifier
53597, 2022-104K
Orbit
Decayed
Last TLE update1 month ago
Origin
Flag of USSpaceX/Seattle (US)
ManufacturerSpaceX/Seattle
MissionDecayed Commercial Communications
Bus & MotorSTARLINK, Unknown motor
Mass300 kg wet, ~290 kg dry
Launch date (UTC)
2022-08-28 (2 years ago)
Launch vehicle
FALCON 9
Launch site
Air Force Eastern Test Range (AFETR)
Object type
Payload
Rocket body
Debris
Shape & HBRBox + 1 Pan, 8.86 m
Radar Cross Section13.562 m², Large (>1 m²)

Expand to show TLE details & history

TLE from 1 month ago
0 STARLINK-4682
1 53597U 22104K   24315.10974424  .15208099  12543-4  24306-3 0  9995
2 53597  53.1987 223.2083 0004566 247.8684 249.1904 16.48069179122278
Epoch: 2024-11-10T02:38Z
Definitive object data (Epoch: 2024-11-10T02:38:01.902Z)
Latitude33.20335°
Longitude-75.18416°
Altitude147.732 km
Speed7.821 km/s
True Right ascension00h 56m 18s
True Declination33° 01' 52"
Sunlit
Object was in full shadow at TLE epoch
Visualization observer readout
Observer readout values are unavailable because the object's trajectory could not be propagated. This is usually caused when the trajectory data is faulty or the object's orbit has decayed.
Visualization observer readout
Observer readout values are unavailable because the object's trajectory could not be propagated. This is usually caused when the trajectory data is faulty or the object's orbit has decayed.
Orbital elements
Apogee altitude147.666 km
Perigee altitude141.709 km
Semi-major axis6,522.824 km
Eccentricity0.0004566
Inclination53.1987°
RAAN223.2083°
Arg. of periapsis247.8684°
True anomaly249.1415°
Mean anomaly249.1904°
Eccentric anomaly249.16595°
Mean motion4.11993 °/min
BSTAR0.00024306
Orbital period87.38 mins
Loading maneuver chart data...
Loading historical data...
Loading historical data...
Loading historical data...
Loading historical data...
Loading historical data...
Loading historical data...
Loading historical data...

STARLINK-4682 Visibility forecast

Observer location: undefined°, undefined

This satellite is decayed
Span
Click to sort rows by Start time (UTC) header in descending order
Start Az.
Max El. time (UTC)
Max El. Az.
Max El.
End time (UTC)
End Az.
|